EW8546 Weather Reports


Display with metric or nautical units.
time (UTC)temp
F
wind
direction
speed
MPH
gust
MPH
rain 1hr
in
rain 24hr
in
rain mn
in
humidity
%
barometer
mb
20260504203035 56 79 10.0 21.0 0.00 0.00 0.00 79 1010.5
20260504201530 57 112 12.0 22.0 0.00 0.00 0.00 77 1010.6
20260504200029 57 84 14.0 23.0 0.00 0.00 0.00 77 1010.7
20260504194527 57 65 12.0 24.0 0.00 0.00 0.00 78 1011.0
20260504193022 57 89 11.0 21.0 0.00 0.00 0.00 76 1010.9
20260504191521 58 88 9.0 24.0 0.00 0.00 0.00 76 1011.1
20260504190020 58 70 11.0 22.0 0.00 0.00 0.00 75 1011.2
20260504184515 58 102 9.0 22.0 0.00 0.00 0.00 76 1011.4
20260504183042 57 85 11.0 20.0 0.00 0.00 0.00 77 1011.7
20260504181539 57 73 11.0 23.0 0.00 0.00 0.00 77 1011.8
20260504180034 57 100 11.0 21.0 0.00 0.00 0.00 77 1012.0
20260504174537 57 77 7.0 22.0 0.00 0.00 0.00 79 1012.0
20260504173036 56 87 12.0 21.0 0.00 0.00 0.00 79 1012.0
20260504171537 57 94 6.0 18.0 0.00 0.00 0.00 81 1012.3
20260504160106 56 60 9.0 18.0 0.00 0.00 0.00 76 1013.0
20260504081539 51 110 6.0 13.0 0.00 0.00 0.00 70 1013.2
20260504044543 51 91 4.0 8.0 0.00 0.00 0.00 71 1012.4
20260504043052 51 105 2.0 6.0 0.00 0.00 0.00 71 1012.4
20260504041543 51 106 1.0 4.0 0.00 0.00 0.00 71 1012.3
20260504040041 51 131 2.0 6.0 0.00 0.00 0.00 70 1012.3
20260504034544 52 113 2.0 9.0 0.00 0.00 0.00 70 1012.2
20260504033035 51 114 2.0 6.0 0.00 0.00 0.00 73 1012.1
20260504031534 51 95 2.0 5.0 0.00 0.00 0.00 72 1012.1
20260504030034 51 105 1.0 4.0 0.00 0.00 0.00 66 1012.1
20260504024528 51 99 1.0 4.0 0.00 0.00 0.00 64 1012.1
20260504023025 51 99 2.0 5.0 0.00 0.00 0.00 55 1012.1
20260504021519 51 101 0.0 1.0 0.00 0.00 0.00 43 1012.0
20260504020030 52 101 0.0 2.0 0.00 0.00 0.00 43 1012.0
20260504014520 52 101 0.0 2.0 0.00 0.00 0.00 42 1011.9
20260504013013 52 101 0.0 2.0 0.00 0.00 0.00 41 1011.7
20260504011509 53 107 0.0 3.0 0.00 0.00 0.00 40 1011.5
20260504010010 53 107 0.0 2.0 0.00 0.00 0.00 39 1011.3
20260504004510 53 106 0.0 2.0 0.00 0.00 0.00 38 1011.2
20260504003001 54 106 0.0 2.0 0.00 0.00 0.00 38 1010.9
20260504001600 54 105 0.0 2.0 0.00 0.00 0.00 36 1010.8
20260504000106 55 107 0.0 5.0 0.00 0.00 0.00 35 1010.6
20260503234554 56 129 1.0 7.0 0.00 0.00 0.00 34 1010.4
20260503233051 57 95 2.0 12.0 0.00 0.00 0.00 33 1010.2
20260503231522 58 138 2.0 13.0 0.00 0.00 0.00 31 1010.0
20260503230035 59 137 6.0 15.0 0.00 0.00 0.00 32 1010.0
20260503224517 59 136 6.0 15.0 0.00 0.00 0.00 31 1009.9
20260503223016 59 194 4.0 11.0 0.00 0.00 0.00 32 1009.8
20260503221514 58 162 4.0 12.0 0.00 0.00 0.00 33 1009.8
20260503220014 58 147 5.0 17.0 0.00 0.00 0.00 33 1009.7
20260503214533 58 141 5.0 19.0 0.00 0.00 0.00 33 1009.6
20260503213009 58 168 11.0 20.0 0.00 0.00 0.00 33 1009.5
20260503211509 58 176 9.0 20.0 0.00 0.00 0.00 34 1009.5
20260503211507 58 170 9.0 20.0 0.00 0.00 0.00 34 1009.5
20260503210006 57 154 8.0 21.0 0.00 0.00 0.00 36 1009.4
20260503204504 57 198 11.0 23.0 0.00 0.00 0.00 35 1009.5